Flag for U.S.A. Weather past 2 weeks in Elizabeth, New Jersey, U.S.A.

Now
85 °F

Scattered clouds.


Feels Like: 85 °F
Forecast: 65 / 86 °F
Wind: 10 mph from Southwest

Location: Newark International Airport

Current Time: May 26, 2015 at 12:18:07 PM

Latest Report: May 26, 2015 at 11:51 AM


Visibility: 10 mi

Pressure: 30.19 "Hg

Humidity: 43%

Dew point: 60 °F

Location of ElizabethLocation

Historic Weather in Elizabeth — Graph

°F

Elizabeth temperature yesterday

Maximum temperature yesterday: 89 °F (at 2:51 PM)
Minimum temperature yesterday: 61 °F (at 4:51 AM)
Average temperature yesterday: 75 °F

Past Weeks' High & Low Weather Summary

 TemperatureHumidityPressure
High89 °F (May 25, 2:51 PM)100% (May 12, 2:58 AM)30.42 "Hg (May 12, 2:58 AM)
Low49 °F (May 23, 5:51 AM)14% (May 14, 3:51 PM)29.75 "Hg (May 12, 6:51 PM)
Average66 °F55%30.10 "Hg
* Reported May 11 10:51 AM — May 26 10:51 AM, Elizabeth, Weather by CustomWeather, © 2015

Note: Actual official high and low records may vary slightly from our data, if they occured in-between our weather recording intervals... More about our weather records

Advertising

Elizabeth weather history for previous 24 hours

 ConditionsComfort  
Time TempWeatherWind HumidityBarometerVisibility
10:51 AM
Tue, May 26
82 °FScattered clouds.12 mph48%30.20 "Hg10 mi
9:51 AM77 °FScattered clouds.12 mph56%30.20 "Hg10 mi
8:51 AM74 °FScattered clouds.12 mph60%30.22 "Hg10 mi
7:51 AM70 °FScattered clouds.13 mph68%30.22 "Hg10 mi
6:51 AM67 °FPartly sunny.10 mph71%30.22 "Hg10 mi
5:51 AM66 °FPassing clouds.7 mph70%30.20 "Hg10 mi
4:51 AM67 °FPassing clouds.10 mph63%30.19 "Hg10 mi
3:51 AM67 °FPassing clouds.8 mph63%30.18 "Hg10 mi
2:51 AM68 °FPassing clouds.9 mph59%30.18 "Hg10 mi
1:51 AM70 °FPassing clouds.13 mph57%30.17 "Hg10 mi
12:51 AM71 °FPassing clouds.15 mph59%30.18 "Hg10 mi
11:51 PM
Mon, May 25
72 °FPassing clouds.13 mph61%30.19 "Hg10 mi
10:51 PM75 °FPassing clouds.14 mph54%30.19 "Hg10 mi
9:51 PM77 °FPassing clouds.10 mph50%30.18 "Hg10 mi
8:51 PM79 °FPartly sunny.16 mph45%30.16 "Hg10 mi
7:51 PM81 °FPartly sunny.22 mph42%30.15 "Hg10 mi
6:51 PM84 °FPartly sunny.17 mph36%30.15 "Hg10 mi
5:51 PM87 °FPartly sunny.20 mph32%30.14 "Hg10 mi
4:51 PM88 °FPartly sunny.20 mph31%30.14 "Hg10 mi
3:51 PM88 °FPartly sunny.17 mph29%30.15 "Hg10 mi
2:51 PM89 °FPartly sunny.12 mph29%30.16 "Hg10 mi
1:51 PM88 °FScattered clouds.14 mph31%30.19 "Hg10 mi
12:59 PM84 °FScattered clouds.12 mph40%30.21 "Hg10 mi
Weather by CustomWeather, © 2015

See weather overviewHow to use our weather pages